Other Public Products
Issued by NWS Grand Forks, ND

Home | Current Version | Previous Version | Graphics & Text | Print | Product List | Glossary On
Versions: 1 2 3 4 5 6 7 8 9 10 11 12 13 14 15 16 17 18 19 20 21 22 23 24 25 26 27 28 29 30 31 32 33 34 35 36 37 38 39 40 41 42 43 44 45 46 47 48 49 50
000
FPUS83 KFGF 281910
OPUFGF
PRAIRIE TO PINES WEATHER ROUNDUP
NATIONAL WEATHER SERVICE EASTERN NORTH DAKOTA/GRAND FORKS ND
200 PM CDT FRI APR 28 2017

 **SATELLITE DATA USED TO AUGMENT SKY COVER AT AUTOMATED STATIONS**
 *****  WEATHER ACROSS EASTERN NORTH DAKOTA  *****

CITY           SKY/WX    TMP DP  RH WIND       PRES   REMARKS
GRAND FORKS    FAIR      52  27  38 N17G24    29.99S
GRAND FORKS AF FAIR      49  24  37 N13       30.01R
GRAND CITY NWS NOT AVBL
BUXTON         NOT AVBL
DEVILS LAKE    FAIR      50  12  21 NW20G26   30.02F
FARGO          FAIR      51  23  33 N16       30.00S
WAHPETON ARPT  FAIR      48  28  46 N8        30.00F
$$

 *****  WEATHER ACROSS CENTRAL AND WESTERN NORTH DAKOTA  *****

CITY           SKY/WX    TMP DP  RH WIND       PRES   REMARKS
JAMESTOWN      FAIR      51  17  26 N15G22    30.01S
BISMARCK       FAIR      54  14  20 NE9G18    30.04S
MINOT          FAIR      54  16  22 NW10      30.04F
MINOT AFB      FAIR      52  16  24 N6        30.04S
GARRISON         N/A     52  11  19 VRB7      30.04S
WILLISTON      FAIR      56  24  29 E7        30.05S
DICKINSON      FAIR      49  19  30 E8G20     30.01R
HETTINGER      FAIR      50  25  37 E15G22    30.02R
$$

 *****  OTHER OBSERVATIONS NORTHEAST NORTH DAKOTA  *****

CITY           SKY/WX    TMP DP  RH WIND       PRES   REMARKS
WALHALLA       NOT AVBL
LANGDON        FAIR      54  10  17 N15G22    30.01S
CAVALIER       FAIR      50  18  27 N18       30.01S
GRAFTON        FAIR      50  21  32 NW18      30.02S
CANDO          NOT AVBL
FORT TOTTEN      N/A     51  15  24 N8        29.95S
ROLLA          FAIR      50  10  20 N15G23    30.03S
RUGBY          NOT AVBL
 ***** THE ABOVE OBSERVATIONS ARE NON NWS ARE NOT QUALITY
        CONTROLLED AND MAY MIS-REPORT RAIN FOR SNOW...
$$

 *****  OTHER OBSERVATIONS SOUTHEAST NORTH DAKOTA *****

CITY           SKY/WX    TMP DP  RH WIND       PRES   REMARKS
COOPERSTOWN    FAIR      50  23  34 N16G24    30.01S
VALLEY CITY    FAIR      50  16  25 N10G23    30.02R
OAKES          NOT AVBL
GWINNER        CLEAR     50  25  37 MISG      30.01S
SHEYENNE NWR     N/A     51  21  31 N7        29.95S
BUFFALO        NOT AVBL
WYNDMERE         N/A     50  27  40 N10         N/A
 ***** THE ABOVE OBSERVATIONS ARE NON NWS ARE NOT QUALITY
       CONTROLLED AND MAY MIS-REPORT RAIN FOR SNOW...
$$

  *****  WEATHER ACROSS NORTHERN MINNESOTA  *****

CITY           SKY/WX    TMP DP  RH WIND       PRES   REMARKS
FLAG ISLAND    FAIR      39  19  45 NW16      29.95R
WARROAD        FAIR      45  18  33 NW7       29.96R
ROSEAU         FAIR      46  18  31 N9        29.96R
HALLOCK        FAIR      52   9  17 N14G24    29.98S
THF RVR FALLS  FAIR      45  14  28 NW16      29.99R
HALSTAD          N/A     47  30  51 N13         N/A
FOSSTON        FAIR      45  21  39 N16       29.97R
BAUDETTE       FAIR      42  22  44 NW22      29.94R
WASKISH        CLOUDY    46  21  36 N10G18    29.94R
CROOKSTON      FAIR      48  27  43 N16G22    30.00S
$$
  *****  WEATHER ACROSS CENTRAL AND WEST MINNESOTA  *****

CITY           SKY/WX    TMP DP  RH WIND       PRES   REMARKS
BEMIDJI        FAIR      43  16  33 NW9       29.93S
PARK RAPIDS    FAIR      49  15  25 NW17G24   29.93S
WADENA         FAIR      46  27  46 N13       29.94S
DETROIT LAKES  FAIR      45  28  53 NW14      29.98S
MOORHEAD       FAIR      46  28  49 NW12G17   30.01S
FERGUS FALLS   FAIR      46  27  46 N13G18    29.98F
ELBOW LAKE     FAIR      46  23  41 N13G21    29.97S
MORRIS MN      FAIR      48  27  43 N15G22    29.96S
STAPLES        FAIR      46  19  34 NW9       29.94F
WHEATON        FAIR      48  23  37 N14G21    30.01S
$$
  *****  WEATHER ELSEWHERE ACROSS MINNESOTA  *****

CITY           SKY/WX    TMP DP  RH WIND       PRES   REMARKS
DULUTH         PTSUNNY   45  29  53 NW10G21   29.87F
INTRNTL FALLS  FAIR      39  24  55 NW20      29.91R
ELY            PTSUNNY   39  23  52 NW12G21   29.86R
CLOQUET        PTSUNNY   45  21  39 W12G21    29.89S
BRAINERD       FAIR      47  23  38 W13       29.94S
HIBBING        CLOUDY    42  25  50 NW17G25   29.88R
ALEXANDRIA     FAIR      48  25  40 N13       29.96S
SAINT CLOUD    FAIR      46  28  49 N12       29.95R
MINNEAPOLIS    PTSUNNY   48  27  44 N12       29.94F
$$

  *****  WEATHER ACROSS SOUTH DAKOTA  *****

CITY           SKY/WX    TMP DP  RH WIND       PRES   REMARKS
SIOUX FALLS    CLOUDY    46  32  58 NE20G26   29.93S
BROOKINGS      FAIR      45  28  51 NE13G22   29.95R
WATERTOWN      FAIR      47  23  38 NE20      29.96R
HURON          FAIR      51  28  41 NE16G23   29.96S
SISSETON         N/A     51  24  34 NE15G24   29.98S
ABERDEEN       FAIR      52  18  26 N20G25    30.00S
MITCHELL       FAIR      49  26  41 NE13G22   29.95S
PIERRE         FAIR      50  25  37 E16G24    29.96F
MOBRIDGE       FAIR      54  15  21 NE9G22    29.98S
RAPID CITY     PTSUNNY   45  27  49 E12G20    29.97R
$$

  *****  SOME WEATHER IN NEARBY STATES *****

CITY           SKY/WX    TMP DP  RH WIND       PRES   REMARKS
GLASGOW MT     PTSUNNY   55  21  26 VRB5      30.02S
GREAT FALLS MT LGT RAIN  42  36  79 S12       30.06S
CHEYENNE WY    PTSUNNY   38  27  64 N24G36    29.72R
SCOTTSBLUFF NE SNOW      34  32  92 E17       29.85R VSB 1/2 WCI  23
OMAHA NE       LGT RAIN  41  36  82 NE9       29.82S
DES MOINES IA  LGT RAIN  40  37  89 NE20      29.81F
DAVENPORT IA   LGT RAIN  44  42  93 NE15      29.86S FOG
CHICAGO IL     CLOUDY    58  45  62 VRB6      29.91F
EAU CLAIRE WI  FAIR      46  26  45 VRB5      29.92S
LA CROSSE WI   FAIR      48  31  51 W3        29.94R
$$

  *****  SOME NATIONAL WEATHER *****

CITY           SKY/WX    TMP DP  RH WIND       PRES   REMARKS
LA GUARDIA NY  FAIR      84  51  31 S10G22    29.96F
RALEIGH NC     PTSUNNY   84  69  60 SW9       30.07S
ATLANTA GA     PTSUNNY   83  65  54 S10G20    30.04F
NEW ORLEANS LA PTSUNNY   83  75  77 S15G28    29.88F HX  90
OKLAHOMA CITY  PTSUNNY   76  57  51 N8        29.62F
ALBUQUERQUE NM LGT RAIN  41  38  89 N8        29.81F
SALT LAKE CITY LGT RAIN  39  37  92 N12       29.93R FOG
LOS ANGELES CA FAIR      80  31  16 N15G24    29.80S
BOISE ID       FAIR      53  31  42 NW25G32   30.07F
SEATTLE WA     FAIR      52  39  61 VRB3      30.36S
$$

*** WEATHER ACROSS MANITOBA...SASKATCHEWAN AND ONTARIO ***
                ***ONTARIO***

CITY           SKY/WX    TMP DP  RH WIND       PRES   REMARKS
GERALDTON      LGT SNOW  27  19  74 W21G28    29.68R VSB 1   WCI  13
THUNDER BAY    CLOUDY    36  21  55 W10G20    29.80R
SIOUX LOOKOUT  CLOUDY    34  19  55 NW16G22   29.85R WCI  23
TORONTO        PTSUNNY   64  46  52 S8G20     29.96F
BIG TROUT LK   CLOUDY    32  16  51 N14G30    29.76R WCI  22
PICKLE LAKE    FLURRIES  28  19  69 VRB10G25  29.73R WCI  19
DRYDEN         PTSUNNY   36  23  60 N13G24    29.87R
KENORA         PTSUNNY   41  19  42 N10G21    29.92R
$$
                *** MANITOBA***

CITY           SKY/WX    TMP DP  RH WIND       PRES   REMARKS
BRANDON        MOSUNNY   52  10  19 N9G21     30.04R
DAUPHIN        SUNNY     52  12  20 N14G23    30.05S
ISLAND LAKE    PTSUNNY   39   5  24 NW12G18   29.99S
PILOT MOUND      N/A     50   5  16 N14G23      N/A
THE PAS        MOSUNNY   48  10  21 N8        30.07S
THOMPSON       CLOUDY    45   9  23 N8G21     30.03S
WINNIPEG       MOSUNNY   50   9  18 NW12G22   30.00R
LYNN LAKE      SUNNY     45  16  31 NE10      30.08R
CHURCHILL      CLOUDY    25  23  93 N25G33    30.09R WCI   9
GILLAM         PTSUNNY   39  14  35 NE16      30.02R
$$
                ***SASKATCHEWAN***

CITY           SKY/WX    TMP DP  RH WIND       PRES   REMARKS
ESTEVAN        MOSUNNY   52  18  25 VRB2      30.05S
KINDERSLEY     CLOUDY    37  32  81 NW14G21   30.03R
LLOYDMINSTER   PTSUNNY   43  30  61 NE9       30.05R
PRINCE ALBERT  PTSUNNY   54  14  20 VRB2      30.04S
REGINA         PTSUNNY   57  19  23 W8        30.01S
YORKTON        SUNNY     52  16  24 VRB2      30.05S



USA.gov is the U.S. government's official web portal to all federal, state and local government web resources and services.